Sigfox identifier Datetime Temperature Humidity SNR
003A60CE 2019-04-23 15:00:38 15.8 35 22
003A60CE 2019-04-23 14:28:19 15.8 35 21.7
003A60CE 2019-04-23 13:55:59 15.6 35 21.4
003A60CE 2019-04-23 13:23:39 15.6 35 21.2
003A60CE 2019-04-23 12:51:19 15.6 35 20.7
003A60CE 2019-04-23 12:18:59 15.6 35 20.3
003A60CE 2019-04-23 11:46:39 15.6 35 20.1
003A60CE 2019-04-23 11:14:20 15.6 34 20
003A60CE 2019-04-23 10:42:00 15.6 34 19.3
003A60CE 2019-04-23 10:09:41 15.6 34 18.7
003A60CE 2019-04-23 09:37:21 15.6 34 18.4
003A60CE 2019-04-23 09:05:02 15.6 34 17.6
003A60CE 2019-04-23 08:32:43 15.6 34 15.3
003A60CE 2019-04-23 08:00:23 15.6 34 14.1
003A60CE 2019-04-23 07:28:03 15.6 34 14.2
003A60CE 2019-04-23 06:55:43 15.6 34 14.5
003A60CE 2019-04-23 06:23:24 15.6 34 14.5
003A60CE 2019-04-23 05:51:07 15.6 34 14.7
003A60CE 2019-04-23 05:18:46 15.6 34 14.8
003A60CE 2019-04-23 04:46:27 15.6 34 15
003A60CE 2019-04-23 04:14:06 15.6 34 15.1
003A60CE 2019-04-23 03:41:46 15.6 34 15.1
003A60CE 2019-04-23 03:09:27 15.6 34 15.1
003A60CE 2019-04-23 02:37:07 15.6 34 15
003A60CE 2019-04-23 02:04:44 15.6 34 14.9
003A60CE 2019-04-23 01:32:28 15.6 34 15.1
003A60CE 2019-04-23 01:00:04 15.6 34 15.1
003A60CE 2019-04-23 00:27:45 15.7 34 15.1
003A60CE 2019-04-22 23:55:25 15.7 34 15.1
003A60CE 2019-04-22 23:23:06 15.8 34 15
003A60CE 2019-04-22 22:50:46 15.8 34 14.9
003A60CE 2019-04-22 22:18:28 15.8 34 14.8
003A60CE 2019-04-22 21:46:06 15.8 34 14.6
003A60CE 2019-04-22 21:13:47 15.8 34 14.4
003A60CE 2019-04-22 20:41:27 15.8 34 14.1
003A60CE 2019-04-22 20:09:07 15.8 34 14
003A60CE 2019-04-22 19:36:47 15.8 34 14
003A60CE 2019-04-22 19:04:27 15.7 34 13.9
003A60CE 2019-04-22 18:32:07 15.6 34 13.9
003A60CE 2019-04-22 17:59:48 15.7 34 13.7
003A60CE 2019-04-22 17:27:28 15.6 34 13.5
003A60CE 2019-04-22 16:55:09 15.6 34 13.3
003A60CE 2019-04-22 16:22:50 15.6 34 13.3
003A60CE 2019-04-22 15:50:30 15.6 34 12.9
003A60CE 2019-04-22 15:18:10 15.6 34 12.7
003A60CE 2019-04-22 14:45:51 15.6 34 12.8
003A60CE 2019-04-22 14:13:31 15.6 34 12.9
003A60CE 2019-04-22 13:41:12 15.6 34 13.1
003A60CE 2019-04-22 13:08:53 15.6 34 13.5
003A60CE 2019-04-22 12:36:33 15.6 34 13.6
003A60CE 2019-04-22 12:04:13 15.6 34 13.7
003A60CE 2019-04-22 11:31:54 15.6 34 13.9
003A60CE 2019-04-22 10:59:39 15.6 34 14.1
003A60CE 2019-04-22 10:27:15 15.6 34 14.3
003A60CE 2019-04-22 09:54:56 15.6 34 14.4
003A60CE 2019-04-22 09:22:36 15.5 34 14.5
003A60CE 2019-04-22 08:50:17 15.5 34 14.6
003A60CE 2019-04-22 08:17:58 15.6 34 14.6
003A60CE 2019-04-22 07:45:38 15.5 34 14.7
003A60CE 2019-04-22 07:13:21 15.6 34 14.7
003A60CE 2019-04-22 06:40:59 15.6 34 14.7
003A60CE 2019-04-22 06:08:39 15.5 34 14.6
003A60CE 2019-04-22 05:36:18 15.5 34 14.6
003A60CE 2019-04-22 05:03:58 15.5 34 14.4
003A60CE 2019-04-22 04:31:39 15.5 34 14.4
003A60CE 2019-04-22 03:59:19 15.4 34 14.3
003A60CE 2019-04-22 03:27:00 15.4 34 14.2
003A60CE 2019-04-22 02:54:40 15.4 34 14.1
003A60CE 2019-04-22 02:22:20 15.5 34 14
003A60CE 2019-04-22 01:49:59 15.4 34 13.9
003A60CE 2019-04-22 01:17:39 15.4 34 13.8
003A60CE 2019-04-22 00:45:20 15.5 34 13.5
003A60CE 2019-04-22 00:13:01 15.5 34 13.2
003A60CE 2019-04-21 23:40:42 15.4 34 12.8
003A60CE 2019-04-21 23:08:23 15.4 34 12.8
003A60CE 2019-04-21 22:36:04 15.5 34 12.7
003A60CE 2019-04-21 22:03:45 15.4 34 12.7
003A60CE 2019-04-21 21:31:26 15.5 34 12.4
003A60CE 2019-04-21 20:59:07 15.5 34 12.7
003A60CE 2019-04-21 20:26:49 15.4 34 13
003A60CE 2019-04-21 19:54:30 15.4 34 12.9
003A60CE 2019-04-21 19:22:12 15.4 34 13
003A60CE 2019-04-21 18:49:52 15.4 34 13.1
003A60CE 2019-04-21 18:17:33 15.4 34 13.1
003A60CE 2019-04-21 17:45:13 15.4 33 13.5
003A60CE 2019-04-21 17:12:54 15.4 33 13.6
003A60CE 2019-04-21 16:40:35 15.4 33 13.8
003A60CE 2019-04-21 16:08:16 15.4 33 13.9
003A60CE 2019-04-21 15:35:58 15.4 33 14.2
003A60CE 2019-04-21 15:03:40 15.4 33 14.2
003A60CE 2019-04-21 14:31:20 15.5 33 14.4
003A60CE 2019-04-21 13:59:02 15.4 33 14.4
003A60CE 2019-04-21 13:26:46 15.4 33 14.4
003A60CE 2019-04-21 12:54:24 15.4 33 14.5
003A60CE 2019-04-21 12:22:05 15.6 33 14.6
003A60CE 2019-04-21 11:49:46 15.6 33 14.6
003A60CE 2019-04-21 11:17:29 15.6 33 14.7
003A60CE 2019-04-21 10:45:08 15.6 33 14.8
003A60CE 2019-04-21 10:12:48 15.6 33 14.7
003A60CE 2019-04-21 09:40:29 15.6 33 14.7
003A60CE 2019-04-21 09:08:09 15.6 33 14.6
003A60CE 2019-04-21 08:35:51 15.6 33 14.6
003A60CE 2019-04-21 08:03:30 15.6 33 14.4
003A60CE 2019-04-21 07:31:11 15.6 33 14.2
003A60CE 2019-04-21 06:58:52 15.6 33 14.3
003A60CE 2019-04-21 06:26:33 15.6 33 14.5
003A60CE 2019-04-21 05:54:14 15.6 33 14.5
003A60CE 2019-04-21 05:21:56 15.6 33 14.5
003A60CE 2019-04-21 04:49:37 15.6 33 14.5
003A60CE 2019-04-21 04:17:19 15.6 33 14.6
003A60CE 2019-04-21 03:44:57 15.6 33 14.6
003A60CE 2019-04-21 03:12:39 15.6 33 14.6
003A60CE 2019-04-21 02:40:20 15.6 33 14.5
003A60CE 2019-04-21 02:08:00 15.6 33 14.6
003A60CE 2019-04-21 01:35:40 15.6 33 14.5
003A60CE 2019-04-21 01:03:21 15.6 33 14.6
003A60CE 2019-04-21 00:31:02 15.6 33 14.6
003A60CE 2019-04-20 23:58:44 15.6 33 14.8
003A60CE 2019-04-20 23:26:26 15.6 33 14.8
003A60CE 2019-04-20 22:54:08 15.6 33 14.9
003A60CE 2019-04-20 22:21:51 15.6 33 15
003A60CE 2019-04-20 21:49:33 15.6 33 15
003A60CE 2019-04-20 21:17:15 15.6 33 15
003A60CE 2019-04-20 20:44:58 15.6 33 14.9
003A60CE 2019-04-20 20:12:40 15.6 33 14.9
003A60CE 2019-04-20 19:40:22 15.6 33 14.8
003A60CE 2019-04-20 19:08:03 15.6 33 14.8
003A60CE 2019-04-20 18:35:45 15.6 33 14.7
003A60CE 2019-04-20 18:03:26 15.6 33 14.5
003A60CE 2019-04-20 17:31:08 15.6 33 14.3
003A60CE 2019-04-20 16:58:50 15.6 33 14.1
003A60CE 2019-04-20 16:26:32 15.6 33 13.8
003A60CE 2019-04-20 15:54:14 15.6 33 13.8
003A60CE 2019-04-20 15:21:56 15.6 33 13.6
003A60CE 2019-04-20 14:49:37 15.6 33 13.3
003A60CE 2019-04-20 14:17:18 15.6 33 13.1
003A60CE 2019-04-20 13:44:59 15.6 33 13
003A60CE 2019-04-20 13:12:39 15.6 33 12.9
003A60CE 2019-04-20 12:40:20 15.6 33 12.8
003A60CE 2019-04-20 12:08:01 15.6 33 12.7
003A60CE 2019-04-20 11:35:42 15.7 33 12.6
003A60CE 2019-04-20 11:03:23 15.7 33 12.6
003A60CE 2019-04-20 10:31:03 15.8 33 12.2
003A60CE 2019-04-20 09:58:45 15.8 33 12.2
003A60CE 2019-04-20 09:26:26 15.8 33 12
003A60CE 2019-04-20 08:54:07 15.8 33 11.7
003A60CE 2019-04-20 08:21:48 15.8 33 11.9
003A60CE 2019-04-20 07:49:28 15.8 33 11.7
003A60CE 2019-04-20 07:17:09 15.8 32 11.8
003A60CE 2019-04-20 06:44:49 15.8 32 11.9
003A60CE 2019-04-20 06:12:29 15.8 32 11.9
003A60CE 2019-04-20 05:40:08 15.8 32 12.1
003A60CE 2019-04-20 05:07:48 15.8 32 12
003A60CE 2019-04-20 04:35:32 15.8 32 12.3
003A60CE 2019-04-20 04:03:10 15.9 32 12.6
003A60CE 2019-04-20 03:30:49 16 32 12.7
003A60CE 2019-04-20 02:58:31 16 32 12.6
003A60CE 2019-04-20 02:26:12 16 32 12.8
003A60CE 2019-04-20 01:53:56 16 32 13.3
003A60CE 2019-04-20 01:21:35 16 32 13.4
003A60CE 2019-04-20 00:49:18 16 32 13.7
003A60CE 2019-04-20 00:16:59 16 32 13.8
003A60CE 2019-04-19 23:44:40 16 32 13.8
003A60CE 2019-04-19 23:12:21 16 32 13.9
003A60CE 2019-04-19 22:40:02 16 32 13.9
003A60CE 2019-04-19 22:07:45 16 32 14
003A60CE 2019-04-19 21:35:25 16 32 14
003A60CE 2019-04-19 21:03:07 16 32 13.9
003A60CE 2019-04-19 20:30:48 16 32 13.9
003A60CE 2019-04-19 19:58:30 16 32 13.8
003A60CE 2019-04-19 19:26:09 16 32 13.7
003A60CE 2019-04-19 18:53:51 16 32 18
003A60CE 2019-04-19 18:21:32 16 32 18
003A60CE 2019-04-19 17:49:12 16 32 18
003A60CE 2019-04-19 17:16:54 16 32 18
003A60CE 2019-04-19 16:44:34 16 32 18
003A60CE 2019-04-19 16:12:15 16 32 18
003A60CE 2019-04-19 15:39:55 16 32 18
003A60CE 2019-04-19 15:07:36 16 32 17.9
003A60CE 2019-04-19 14:35:18 16 32 17.9
003A60CE 2019-04-19 14:02:59 16 32 17.8
003A60CE 2019-04-19 13:30:40 16 32 17.9
003A60CE 2019-04-19 12:58:20 16 32 17.8
003A60CE 2019-04-19 12:26:00 16 32 17.6
003A60CE 2019-04-19 11:53:41 16 32 17.6
003A60CE 2019-04-19 11:21:21 16 32 17.5
003A60CE 2019-04-19 10:49:02 16 32 17.5
003A60CE 2019-04-19 10:16:42 16 32 17.6
003A60CE 2019-04-19 09:44:21 16 32 17.5
003A60CE 2019-04-19 09:12:00 16 31 17.6
003A60CE 2019-04-19 08:39:39 16.1 31 17.6
003A60CE 2019-04-19 08:07:19 16.1 31 18.6
003A60CE 2019-04-19 07:34:59 16.1 31 18.9
003A60CE 2019-04-19 07:02:41 16.2 31 19.3
003A60CE 2019-04-19 06:30:19 16.3 31 19.6
003A60CE 2019-04-19 05:58:02 16.3 31 20
003A60CE 2019-04-19 05:25:40 16.3 31 19.3
003A60CE 2019-04-19 04:53:21 16.3 31 20
003A60CE 2019-04-19 04:21:02 16.3 31 20.4
003A60CE 2019-04-19 03:48:44 16.3 31 21
003A60CE 2019-04-19 03:16:24 16.3 31 21.2
003A60CE 2019-04-19 02:44:06 16.5 31 21.8
003A60CE 2019-04-19 02:11:42 16.5 31 22
003A60CE 2019-04-19 01:39:23 16.5 31 22.3
003A60CE 2019-04-19 01:07:03 16.5 31 22.6
003A60CE 2019-04-19 00:34:44 16.5 31 22.9
003A60CE 2019-04-19 00:02:27 16.5 31 23.2
003A60CE 2019-04-18 23:30:06 16.5 31 23.8
003A60CE 2019-04-18 22:57:46 16.5 31 24
003A60CE 2019-04-18 22:25:27 16.5 31 24.2
003A60CE 2019-04-18 21:53:07 16.5 31 24.8
003A60CE 2019-04-18 21:20:47 16.5 31 24.8
003A60CE 2019-04-18 20:48:27 16.5 31 24.8
003A60CE 2019-04-18 20:16:10 16.5 31 24.9
003A60CE 2019-04-18 19:43:50 16.5 31 24.9
003A60CE 2019-04-18 19:11:28 16.5 31 24.9
003A60CE 2019-04-18 18:39:09 16.5 31 24.8
003A60CE 2019-04-18 18:06:50 16.5 31 24.7
003A60CE 2019-04-18 17:34:31 16.5 31 24.7
003A60CE 2019-04-18 17:02:12 16.5 31 24.6
003A60CE 2019-04-18 16:29:53 16.5 31 24.5
003A60CE 2019-04-18 15:57:34 16.5 31 24.1
003A60CE 2019-04-18 15:25:15 16.5 31 23.9
003A60CE 2019-04-18 14:52:55 16.5 31 23.8
003A60CE 2019-04-18 14:20:36 16.5 31 23.6
003A60CE 2019-04-18 13:48:17 16.5 31 23.5
003A60CE 2019-04-18 13:15:58 16.5 30 23.1
003A60CE 2019-04-18 12:43:39 16.5 30 23
003A60CE 2019-04-18 12:11:19 16.5 30 22.9
003A60CE 2019-04-18 11:38:59 16.5 30 22.8
003A60CE 2019-04-18 11:06:40 16.5 30 22.7
003A60CE 2019-04-18 10:34:20 16.5 30 22.5
003A60CE 2019-04-18 10:02:01 16.5 30 21.8
003A60CE 2019-04-18 09:29:41 16.5 30 21.7
003A60CE 2019-04-18 08:57:20 16.5 30 21.5
003A60CE 2019-04-18 08:25:00 16.6 30 20.3
003A60CE 2019-04-18 07:52:41 16.6 30 20.2
003A60CE 2019-04-18 07:20:21 16.6 30 20.3
003A60CE 2019-04-18 06:48:01 16.7 30 20.2
003A60CE 2019-04-18 06:15:42 16.7 30 20.1
003A60CE 2019-04-18 05:43:23 16.7 30 20
003A60CE 2019-04-18 05:11:04 16.7 30 20.1
003A60CE 2019-04-18 04:38:44 16.7 30 20.7
003A60CE 2019-04-18 04:06:24 16.9 30 21.1
003A60CE 2019-04-18 03:34:04 16.9 29 21.6
003A60CE 2019-04-18 03:01:45 16.9 29 21.9
003A60CE 2019-04-18 02:29:26 16.9 29 21.9
003A60CE 2019-04-18 01:57:07 16.9 29 22.8
003A60CE 2019-04-18 01:24:52 17 29 22.8
003A60CE 2019-04-18 00:52:28 17.1 29 22.8
003A60CE 2019-04-18 00:20:09 17.1 29 22.8
003A60CE 2019-04-17 23:47:49 17.1 29 22.9
003A60CE 2019-04-17 23:15:30 17.1 29 23.1
003A60CE 2019-04-17 22:43:11 17.1 29 23.1
003A60CE 2019-04-17 22:10:53 17.1 29 22.9
003A60CE 2019-04-17 21:38:34 17.1 29 22.9
003A60CE 2019-04-17 21:06:15 17.1 29 22.8
003A60CE 2019-04-17 20:33:55 17.1 29 22.8
003A60CE 2019-04-17 20:01:36 17.2 29 22.7
003A60CE 2019-04-17 19:29:18 17.3 29 22.6
003A60CE 2019-04-17 18:56:59 17.3 29 22.8
003A60CE 2019-04-17 18:24:41 17.3 29 22.8
003A60CE 2019-04-17 17:52:22 17.3 28 22.8
003A60CE 2019-04-17 17:20:02 17.4 28 23.6
003A60CE 2019-04-17 16:47:43 17.5 28 23.7
003A60CE 2019-04-17 16:15:23 17.5 28 23.7
003A60CE 2019-04-17 15:43:03 17.5 28 24.1
003A60CE 2019-04-17 15:10:42 17.5 28 23.9
003A60CE 2019-04-17 14:38:22 17.7 28 23.7
003A60CE 2019-04-17 14:06:01 17.8 28 23.5
003A60CE 2019-04-17 13:33:41 17.8 28 23.6
003A60CE 2019-04-17 13:01:21 17.8 28 22.8
003A60CE 2019-04-17 12:29:02 17.8 28 22.9
003A60CE 2019-04-17 11:56:42 17.8 28 22.9
003A60CE 2019-04-17 11:24:23 18 27 22.9
003A60CE 2019-04-17 10:52:03 18 27 22.7
003A60CE 2019-04-17 10:19:43 18 27 22.4
003A60CE 2019-04-17 09:47:23 18.2 27 22.4
003A60CE 2019-04-17 09:15:03 18.2 27 22.3
003A60CE 2019-04-17 08:42:43 18.3 27 22.3
003A60CE 2019-04-17 08:10:23 18.4 27 22.2
003A60CE 2019-04-17 07:38:01 18.4 27 22.1
003A60CE 2019-04-17 07:05:40 18.5 27 22
003A60CE 2019-04-17 06:33:20 18.6 27 22
003A60CE 2019-04-17 06:01:00 18.6 27 22
003A60CE 2019-04-17 05:28:38 18.6 27 22
003A60CE 2019-04-17 04:56:17 18.8 27 22.1
003A60CE 2019-04-17 04:23:56 18.8 26 22.9
003A60CE 2019-04-17 03:51:34 18.8 26 22.2
003A60CE 2019-04-17 03:19:13 19 26 22.3
003A60CE 2019-04-17 02:46:52 19 26 22.2
003A60CE 2019-04-17 02:14:31 19 26 20.9
003A60CE 2019-04-17 01:42:10 19.2 26 20.8
003A60CE 2019-04-17 01:09:50 19.2 26 20.6
003A60CE 2019-04-17 00:37:28 19.2 26 20.5
003A60CE 2019-04-17 00:05:07 19.4 25 20.4
003A60CE 2019-04-16 23:32:46 19.5 25 20.1
003A60CE 2019-04-16 23:00:24 19.6 25 19.9
003A60CE 2019-04-16 22:28:04 19.7 25 19.9
003A60CE 2019-04-16 21:55:43 19.7 25 20
003A60CE 2019-04-16 21:23:21 19.9 25 19.9
003A60CE 2019-04-16 20:51:02 19.9 25 19.9
003A60CE 2019-04-16 20:18:39 19.9 25 19.9
003A60CE 2019-04-16 19:46:18 20.1 25 19.9
003A60CE 2019-04-16 19:13:56 20.1 25 19.8
003A60CE 2019-04-16 18:41:34 20.2 25 19.8
003A60CE 2019-04-16 18:09:12 20.3 24 19.8
003A60CE 2019-04-16 17:36:52 20.5 24 19.8
003A60CE 2019-04-16 17:04:28 20.5 24 19.7
003A60CE 2019-04-16 16:32:06 20.7 24 19.5
003A60CE 2019-04-16 15:59:44 20.7 24 20.5
003A60CE 2019-04-16 15:27:22 20.8 25 18.7
003A60CE 2019-04-16 14:54:58 21 25 18.2
003A60CE 2019-04-16 13:50:12 20.9 25 17.6
003A60CE 2019-04-16 13:17:54 20.9 25 17.5
003A60CE 2019-04-16 12:45:27 20.8 26 17.6
003A60CE 2019-04-16 12:13:05 20.8 26 17.6
003A60CE 2019-04-16 11:40:43 20.7 26 17.6
003A60CE 2019-04-16 11:08:20 20.7 27 17.4
003A60CE 2019-04-16 10:35:59 20.7 27 17.3
003A60CE 2019-04-16 10:03:39 20.7 27 17.3
003A60CE 2019-04-16 09:31:18 20.7 27 17.3
003A60CE 2019-04-16 08:58:52 20.7 26 17.3
003A60CE 2019-04-16 08:26:31 20.7 26 17
003A60CE 2019-04-16 07:54:05 20.7 26 17
003A60CE 2019-04-16 07:21:43 20.7 26 17.1
003A60CE 2019-04-16 06:49:21 20.7 26 17.1
003A60CE 2019-04-16 06:16:56 20.7 26 17.2
003A60CE 2019-04-16 05:44:34 20.7 26 17.1
003A60CE 2019-04-16 05:12:14 20.7 26 17.2
003A60CE 2019-04-16 04:39:53 20.7 26 17.1
003A60CE 2019-04-16 04:07:29 20.7 26 17.2
003A60CE 2019-04-16 03:35:06 20.7 26 17.3
003A60CE 2019-04-16 03:02:40 20.7 25 11.5
003A60CE 2019-04-16 02:30:17 20.8 25 17.3
003A60CE 2019-04-16 01:57:53 20.8 25 17.9
003A60CE 2019-04-16 01:25:31 20.9 25 18.8
003A60CE 2019-04-16 00:53:06 21 25 19.4
003A60CE 2019-04-16 00:20:46 21 25 20.5
003A60CE 2019-04-15 23:15:57 21 25 21.8
003A60CE 2019-04-15 22:43:37 21 24 22.1
003A60CE 2019-04-15 21:38:46 21 24 22.3
003A60CE 2019-04-15 21:06:22 21 24 22.6
003A60CE 2019-04-15 20:34:00 21.1 24 22.8
003A60CE 2019-04-15 20:01:38 21.2 23 23.1
003A60CE 2019-04-15 19:29:15 21.2 23 23.5
003A60CE 2019-04-15 18:56:50 21.2 23 23.9
003A60CE 2019-04-15 18:24:29 21.3 23 24.2
003A60CE 2019-04-15 17:52:08 21.4 22 24.4
003A60CE 2019-04-15 17:19:46 21.4 22 24.6
003A60CE 2019-04-15 16:47:21 21.5 22 24.8
003A60CE 2019-04-15 16:14:57 21.6 21 25.3
003A60CE 2019-04-15 15:42:36 21.6 21 25.6
003A60CE 2019-04-15 15:10:14 21.8 20 25.8
003A60CE 2019-04-15 14:37:49 21.8 20 26
003A60CE 2019-04-15 14:05:26 22 19 26.1
003A60CE 2019-04-15 13:33:03 22.2 18 26.3
003A60CE 2019-04-15 13:00:40 22.3 18 26.5
003A60CE 2019-04-15 12:28:19 22.5 17 26.6
003A60CE 2019-04-15 11:55:53 22.5 15 26.5
003A60CE 2019-04-15 11:23:29 22.4 15 26.5
003A60CE 2019-04-15 10:51:04 22.3 16 26.5
003A60CE 2019-04-15 10:18:39 22.2 16 26.5
003A60CE 2019-04-15 09:46:15 22.2 17 26.4
003A60CE 2019-04-15 09:13:50 22.2 17 26.2
003A60CE 2019-04-15 08:41:25 22 17 26.3
003A60CE 2019-04-15 08:08:59 22 16 26.3
003A60CE 2019-04-15 07:36:33 22 17 26.4
003A60CE 2019-04-15 07:04:07 22 17 26.5
003A60CE 2019-04-15 06:31:42 21.9 17 26.5
003A60CE 2019-04-15 05:59:17 21.9 17 26.4
003A60CE 2019-04-15 05:26:51 21.9 17 26.4
003A60CE 2019-04-15 04:54:25 21.8 17 26.3
003A60CE 2019-04-15 04:21:59 21.8 17 26.3
003A60CE 2019-04-15 03:49:34 21.8 17 26.3
003A60CE 2019-04-15 03:17:09 21.9 17 26.3
003A60CE 2019-04-15 02:44:44 21.8 17 26
003A60CE 2019-04-15 02:12:17 21.8 17 25.9
003A60CE 2019-04-15 01:39:53 21.8 17 25.8
003A60CE 2019-04-15 01:07:26 21.8 17 25.9
003A60CE 2019-04-15 00:35:00 21.8 17 25.8
003A60CE 2019-04-15 00:02:36 21.8 17 25.9
003A60CE 2019-04-14 23:30:10 21.8 17 25.8
003A60CE 2019-04-14 22:57:45 21.8 17 25.9
003A60CE 2019-04-14 22:25:19 22 17 25.7
003A60CE 2019-04-14 21:52:53 22 18 25.8
003A60CE 2019-04-14 21:20:27 22 18 25.8
003A60CE 2019-04-14 20:48:03 22 18 25.8
003A60CE 2019-04-14 20:15:38 22 18 25.8
003A60CE 2019-04-14 19:43:13 22.1 18 25.7
003A60CE 2019-04-14 19:10:48 22.1 18 25.8
003A60CE 2019-04-14 18:38:22 22.1 18 26.1
003A60CE 2019-04-14 18:05:56 22 18 26.1
003A60CE 2019-04-14 17:33:30 22 18 26.1
003A60CE 2019-04-14 17:01:05 22 17 26.2
003A60CE 2019-04-14 16:28:39 22 18 26.2
003A60CE 2019-04-14 15:56:14 22 18 26.3
003A60CE 2019-04-14 15:23:50 22 18 26.3
003A60CE 2019-04-14 14:51:24 22 18 26.4
003A60CE 2019-04-14 14:19:00 22 18 26.5
003A60CE 2019-04-14 13:46:36 22 18 26.5
003A60CE 2019-04-14 13:14:11 22 18 26.5
003A60CE 2019-04-14 12:41:45 22 18 26.6
003A60CE 2019-04-14 12:09:21 22 18 26.8
003A60CE 2019-04-14 11:36:56 22 18 26.7
003A60CE 2019-04-14 11:04:31 22 18 27
003A60CE 2019-04-14 10:32:06 22 18 27.1
003A60CE 2019-04-14 09:59:40 22 18 27.1
003A60CE 2019-04-14 09:27:15 22 18 27.1
003A60CE 2019-04-14 08:54:51 22 18 27.1
003A60CE 2019-04-14 08:22:26 22 18 27.1
003A60CE 2019-04-14 07:50:00 22 18 27.1
003A60CE 2019-04-14 07:17:36 22 17 27.2
003A60CE 2019-04-14 06:45:10 22 17 27.2
003A60CE 2019-04-14 06:12:45 22 17 27.2
003A60CE 2019-04-14 05:40:21 22 17 27.1
003A60CE 2019-04-14 05:07:57 22 17 27
003A60CE 2019-04-14 04:35:32 21.9 17 26.9
003A60CE 2019-04-14 04:03:08 22 17 26.9
003A60CE 2019-04-14 03:30:43 22 17 26.8
003A60CE 2019-04-14 02:58:19 22 17 26.8
003A60CE 2019-04-14 02:25:55 22 18 26.8
003A60CE 2019-04-14 01:53:31 22 18 26.8
003A60CE 2019-04-14 01:21:08 22 18 26.7
003A60CE 2019-04-14 00:48:44 22 18 26.7
003A60CE 2019-04-14 00:16:20 22 17 26.6
003A60CE 2019-04-13 23:43:56 22 17 26.7
003A60CE 2019-04-13 23:11:32 22.1 17 26.7
003A60CE 2019-04-13 22:39:08 22.1 17 26.5
003A60CE 2019-04-13 22:06:44 22.1 17 26.5
003A60CE 2019-04-13 21:34:19 22.2 17 26.3
003A60CE 2019-04-13 21:01:54 22.2 17 26.1
003A60CE 2019-04-13 20:29:30 22.2 17 26.1
003A60CE 2019-04-13 19:57:06 22.2 17 26.1
003A60CE 2019-04-13 19:24:41 22.2 17 26
003A60CE 2019-04-13 18:52:18 22.2 17 26
003A60CE 2019-04-13 18:19:54 22.2 17 26.2
003A60CE 2019-04-13 17:47:30 22.2 17 26.1
003A60CE 2019-04-13 17:15:06 22.3 17 26.1
003A60CE 2019-04-13 16:42:42 22.3 17 26
003A60CE 2019-04-13 16:10:17 22.4 17 26.3
003A60CE 2019-04-13 15:37:51 22.4 17 26.3
003A60CE 2019-04-13 15:05:27 22.4 17 26.3
003A60CE 2019-04-13 14:33:02 22.5 17 26.2
003A60CE 2019-04-13 14:00:37 22.5 17 26.3
003A60CE 2019-04-13 13:28:14 22.5 17 26.2
003A60CE 2019-04-13 12:55:49 22.5 17 26.2
003A60CE 2019-04-13 12:23:25 22.5 17 26.2
003A60CE 2019-04-13 11:51:00 22.5 17 26.1
003A60CE 2019-04-13 11:18:36 22.5 18 26.2
003A60CE 2019-04-13 10:46:11 22.5 17 26.2
003A60CE 2019-04-13 10:13:46 22.5 17 26.2
003A60CE 2019-04-13 09:41:21 22.5 17 26.2
003A60CE 2019-04-13 09:08:56 22.5 17 26.3
003A60CE 2019-04-13 08:36:31 22.5 17 26.4
003A60CE 2019-04-13 08:04:05 22.5 17 26.3
003A60CE 2019-04-13 07:31:39 22.5 17 26.3
003A60CE 2019-04-13 06:59:13 22.5 17 26.2
003A60CE 2019-04-13 06:26:47 22.5 17 26.4
003A60CE 2019-04-13 05:54:21 22.5 17 26.5
003A60CE 2019-04-13 05:21:57 22.5 17 26.6
003A60CE 2019-04-13 04:49:33 22.5 17 26.4
003A60CE 2019-04-13 04:17:07 22.5 17 26.4
003A60CE 2019-04-13 03:44:41 22.5 17 26.7
003A60CE 2019-04-13 03:12:17 22.5 17 26.7
003A60CE 2019-04-13 02:39:51 22.5 17 26.5
003A60CE 2019-04-13 02:07:25 22.5 17 26.4
003A60CE 2019-04-13 01:34:59 22.5 17 26.3
003A60CE 2019-04-13 01:02:33 22.6 17 26.4
003A60CE 2019-04-13 00:30:07 22.7 17 26.4
003A60CE 2019-04-12 23:57:40 22.7 18 26.4
003A60CE 2019-04-12 23:25:14 22.7 18 26.5
003A60CE 2019-04-12 22:52:48 22.7 18 26.6
003A60CE 2019-04-12 22:20:22 22.9 18 26.7
003A60CE 2019-04-12 21:47:56 22.9 18 26.6
003A60CE 2019-04-12 21:15:30 22.9 18 26.6
003A60CE 2019-04-12 20:43:04 22.9 18 26.7
003A60CE 2019-04-12 20:10:38 22.9 17 26.8
003A60CE 2019-04-12 19:38:12 22.9 17 26.7
003A60CE 2019-04-12 19:05:46 22.9 17 26.6
003A60CE 2019-04-12 18:33:21 22.9 16 26.7
003A60CE 2019-04-12 18:00:54 23.1 16 26.9
003A60CE 2019-04-12 17:28:27 23.1 16 27
003A60CE 2019-04-12 16:56:01 23.1 17 26.9
003A60CE 2019-04-12 16:23:36 23.1 17 26.8
003A60CE 2019-04-12 15:51:09 23.1 17 26.4
003A60CE 2019-04-12 15:18:44 23.1 18 26.2
003A60CE 2019-04-12 14:46:18 22.9 18 26.5
003A60CE 2019-04-12 14:13:52 22.7 18 24.2
003A60CE 2019-04-12 13:41:26 22.2 19 23.1
003A60CE 2019-04-12 13:09:02 21.2 22 12.1